TimeEST,TemperatureF,Dew PointF,Humidity,Sea Level PressureIn,VisibilityMPH,Wind Direction,Wind SpeedMPH,Gust SpeedMPH,PrecipitationIn,Events,Conditions,WindDirDegrees,DateUTC
12:15 AM,32.0,30.2,93,30.18,10.0,Calm,Calm,-,N/A,,Clear,0,2012-11-26 05:15:00
12:35 AM,32.0,30.2,93,30.18,10.0,Calm,Calm,-,N/A,,Clear,0,2012-11-26 05:35:00
12:55 AM,30.2,28.4,93,30.18,10.0,Calm,Calm,-,N/A,,Clear,0,2012-11-26 05:55:00
1:15 AM,30.2,28.4,93,30.18,10.0,Calm,Calm,-,N/A,,Clear,0,2012-11-26 06:15:00
1:35 AM,28.4,28.4,100,30.17,10.0,Calm,Calm,-,N/A,,Clear,0,2012-11-26 06:35:00
1:55 AM,30.2,28.4,93,30.18,10.0,Calm,Calm,-,N/A,,Clear,0,2012-11-26 06:55:00
2:15 AM,28.4,28.4,100,30.17,10.0,Calm,Calm,-,N/A,,Clear,0,2012-11-26 07:15:00
2:35 AM,28.4,28.4,100,30.17,10.0,Calm,Calm,-,N/A,,Clear,0,2012-11-26 07:35:00
2:55 AM,28.4,28.4,100,30.17,10.0,Calm,Calm,-,N/A,,Clear,0,2012-11-26 07:55:00
3:15 AM,28.4,28.4,100,30.18,10.0,Calm,Calm,-,N/A,,Clear,0,2012-11-26 08:15:00
3:35 AM,28.4,28.4,100,30.19,10.0,Calm,Calm,-,N/A,,Clear,0,2012-11-26 08:35:00
3:55 AM,28.4,28.4,100,30.19,10.0,Calm,Calm,-,N/A,,Clear,0,2012-11-26 08:55:00
4:15 AM,28.4,28.4,100,30.19,10.0,Calm,Calm,-,N/A,,Clear,0,2012-11-26 09:15:00
4:35 AM,28.4,28.4,100,30.19,10.0,Calm,Calm,-,N/A,,Clear,0,2012-11-26 09:35:00
4:55 AM,28.4,28.4,100,30.19,10.0,Calm,Calm,-,N/A,,Clear,0,2012-11-26 09:55:00
5:15 AM,28.4,26.6,93,30.19,10.0,Calm,Calm,-,N/A,,Clear,0,2012-11-26 10:15:00
5:35 AM,28.4,26.6,93,30.20,10.0,Calm,Calm,-,N/A,,Clear,0,2012-11-26 10:35:00
5:55 AM,28.4,26.6,93,30.20,10.0,Calm,Calm,-,N/A,,Clear,0,2012-11-26 10:55:00
6:15 AM,28.4,26.6,93,30.21,10.0,Calm,Calm,-,N/A,,Clear,0,2012-11-26 11:15:00
6:35 AM,28.4,26.6,93,30.21,10.0,Calm,Calm,-,N/A,,Clear,0,2012-11-26 11:35:00
7:50 AM,28.4,28.4,100,30.24,10.0,Calm,Calm,-,N/A,,Clear,0,2012-11-26 12:50:00
8:50 AM,41.0,37.4,87,30.25,10.0,Calm,Calm,-,N/A,,Clear,0,2012-11-26 13:50:00
10:50 AM,62.6,32.0,32,30.26,10.0,Calm,Calm,-,N/A,,Clear,0,2012-11-26 15:50:00
11:50 AM,66.2,30.2,26,30.24,10.0,Calm,Calm,-,N/A,,Clear,0,2012-11-26 16:50:00
12:50 PM,68.0,32.0,26,30.21,10.0,North,6.9,-,N/A,,Clear,360,2012-11-26 17:50:00
1:50 PM,69.8,28.4,21,30.20,10.0,Variable,5.8,-,N/A,,Clear,0,2012-11-26 18:50:00
3:50 PM,71.6,32.0,23,30.17,10.0,NNE,3.5,-,N/A,,Clear,30,2012-11-26 20:50:00
4:50 PM,68.0,35.6,30,30.18,10.0,NNE,3.5,-,N/A,,Clear,30,2012-11-26 21:50:00
5:50 PM,60.8,41.0,48,30.19,10.0,ENE,4.6,-,N/A,,Clear,60,2012-11-26 22:50:00
6:50 PM,51.8,42.8,71,30.20,10.0,Calm,Calm,-,N/A,,Clear,0,2012-11-26 23:50:00
7:50 PM,46.4,41.0,81,30.22,10.0,Calm,Calm,-,N/A,,Clear,0,2012-11-27 00:50:00
8:15 PM,44.6,41.0,87,30.22,10.0,Calm,Calm,-,N/A,,Clear,0,2012-11-27 01:15:00
8:35 PM,44.6,41.0,87,30.22,10.0,Calm,Calm,-,N/A,,Clear,0,2012-11-27 01:35:00
8:55 PM,42.8,41.0,93,30.22,10.0,Calm,Calm,-,N/A,,Clear,0,2012-11-27 01:55:00
9:15 PM,42.8,41.0,93,30.23,10.0,Calm,Calm,-,N/A,,Clear,0,2012-11-27 02:15:00
9:35 PM,41.0,41.0,100,30.23,10.0,Calm,Calm,-,N/A,,Clear,0,2012-11-27 02:35:00
9:55 PM,41.0,41.0,100,30.22,10.0,Calm,Calm,-,N/A,,Clear,0,2012-11-27 02:55:00
10:15 PM,41.0,41.0,100,30.22,10.0,Calm,Calm,-,N/A,,Clear,0,2012-11-27 03:15:00
10:35 PM,42.8,39.2,87,30.21,10.0,Calm,Calm,-,N/A,,Clear,0,2012-11-27 03:35:00
10:55 PM,41.0,41.0,100,30.21,10.0,Calm,Calm,-,N/A,,Clear,0,2012-11-27 03:55:00
11:15 PM,41.0,41.0,100,30.21,10.0,Calm,Calm,-,N/A,,Clear,0,2012-11-27 04:15:00
11:35 PM,41.0,41.0,100,30.21,10.0,Calm,Calm,-,N/A,,Clear,0,2012-11-27 04:35:00
11:55 PM,41.0,41.0,100,30.21,10.0,Calm,Calm,-,N/A,,Clear,0,2012-11-27 04:55:00